Location: Bern�tre
(50.1974°N, 2.0915°E)
Time: 05:37:30
(UTC+00:00)

NOSS 3-4 (C) - Pass Details

Date: 18 September 2020
Orbit: 886 x 1326 km, 63.4° (Epoch: 23 October)

Event Time Altitude Azimuth Distance (km) Brightness Sun altitude
Exits shadow 22:41:39 43° 360° (N) 1,327 4.4 -36.6°
Drops below altitude 10° 22:46:44 10° 41° (NE) 2,821 6.2 -36.9°
Sets 22:49:36 0° 46° (NE) 3,843 6.9 -37.0°
